Location: México DF
(19.4326°N, 99.1332°W)
Time: 23:16:55
(UTC+00:00)

ISS - Pass Details

Date: 04 October 2024
Orbit: 412 x 423 km, 51.6° (Epoch: 10 October)

Event Time Altitude Azimuth Distance (km) Brightness Sun altitude
Rises 01:47:11 0° 317° (NW) 2,357 0.7 -20.8°
Reaches altitude 10° 01:49:17 10° 314° (NW) 1,495 -0.3 -21.3°
Enters shadow 01:52:25 62° 256° (WSW) 473 -3.4 -22.0°
